Regional Weather Roundup
Issued by NWS State College, PA

Home | Current Version | Previous Version | Graphics & Text | Print | Product List | Glossary Off
Versions: 1 2 3 4 5 6 7 8 9 10 11 12 13 14 15 16 17 18 19 20 21 22 23 24 25 26 27 28 29 30 31 32 33 34 35 36 37 38 39 40 41 42 43 44 45 46 47 48 49 50

000
ASUS41 KCTP 260710
RWRCTP

REGIONAL WEATHER ROUNDUP
NATIONAL WEATHER SERVICE STATE COLLEGE PA
300 AM EDT FRI AUG 26 2016

Note: "fair" indicates few or no clouds below 12,000 feet with no
significant weather and/or obstructions to visibility.

* = STATION THAT DOES NOT REPORT PRECIPITATION /E.G. RAIN...SNOW...ETC/
    THUNDER OR FOG.

PAZ002>004-007>009-013>016-020>023-029>032-260800-
WESTERN PENNSYLVANIA

CITY           SKY/WX    TMP DP  RH WIND       PRES   REMARKS
ERIE           CLOUDY    74  71  91 SW7       30.03R
MEADVILLE      FAIR      70  69  97 SW3       30.08R
FRANKLIN*        N/A     70  66  88 W6        30.09R
NEW CASTLE     FAIR      72  71  97 SW5       30.09R
BEAVER COUNTY  NOT AVBL
BUTLER*        NOT AVBL
PITTSBURGH INT FAIR      75  71  87 SW6       30.09S
PITTSBURGH     MOCLDY    74  70  87 SW7       30.09R
INDIANA*       NOT AVBL
LATROBE        NOT AVBL
WASHINGTON CO* FAIR      72  70  94 CALM      30.11S
$$

PAZ004>006-010>012-017>019-024>028-033>037-041-042-045-046-049>053-260800-
CENTRAL PENNSYLVANIA

CITY           SKY/WX    TMP DP  RH WIND       PRES   REMARKS
BRADFORD       CLOUDY    70  70 100 W5        30.07S
DUBOIS         FOG       70  67  90 SW6       30.08R VSB 1/2
CLEARFIELD     FOG       71  71 100 SW7       30.07R VSB 1/4
JOHNSTOWN      MOCLDY    70  70 100 W8        30.12F
ALTOONA        FAIR      71  71 100 W5        30.08S
STATE COLLEGE  FAIR      73  71  91 W6        30.05R
WILLIAMSPORT   MOCLDY    75  72  90 CALM      29.96F
SELINSGROVE    CLOUDY    73  73 100 E3        29.99R
FT INDIANTOWN  FAIR      72  72 100 N2        30.00R FOG
CAPITAL CITY   FAIR      76  71  85 S3        29.98S
HARRISBURG     MOCLDY    79  75  87 VRB5      29.97F
YORK           FAIR      78  74  87 CALM      30.00S
$$

PAZ038>040-043-044-047-048-054-055-060>062-067>071-260800-
EASTERN PENNSYLVANIA

CITY           SKY/WX    TMP DP  RH WIND       PRES   REMARKS
SCRANTON       LGT RAIN  73  71  93 CALM      29.99S
MOUNT POCONO   FAIR      71  69  93 W8        30.05R
ALLENTOWN      FAIR      72  68  87 CALM      29.98F
QUAKERTOWN*    FAIR      73  72  94 CALM      30.02R
READING        FAIR      75  71  87 S3        29.98F
LANCASTER      FAIR      72  72 100 SE5       29.99F FOG
COATESVILLE    FAIR      73  72  94 CALM      30.03S
POTTSTOWN      FAIR      74  71  91 S5        30.02R
BLUE BELL      MOCLDY    73  70  88 SW5       30.01R
DOYLESTOWN     FAIR      75  72  90 SW3       30.00R
WILLOW GROVE   NOT AVBL
NORTH PHILA    FAIR      78  71  79 SW6       30.01R
PHILADELPHIA   FAIR      76  69  79 SW8       30.01R
$$




USA.gov is the U.S. government's official web portal to all federal, state and local government web resources and services.